Location: Argonnex
(45.9500°N, 6.1333°E)
Time: 17:30:00
(UTC+00:00)

Cosmos 1697 Rocket - Pass Details

Date: 28 January 2023
Orbit: 834 x 841 km, 71.0° (Epoch: 30 March)

Event Time Altitude Azimuth Distance (km) Brightness Sun altitude
Rises 16:56:01 0° 200° (SSW) 3,383 6.5 -4.2°
Reaches altitude 10° 16:58:27 10° 198° (SSW) 2,452 5.7 -4.6°
Maximum altitude 17:04:05 78° 114° (ESE) 865 2.7 -5.5°
Drops below altitude 10° 17:09:44 10° 29° (NNE) 2,465 4.7 -6.5°
Sets 17:12:11 0° 28° (NNE) 3,403 5.4 -6.9°
